Regional Weather Roundup
Issued by NWS Charleston, SC

Current Version | Previous Version | Graphics & Text | Print | Product List | Glossary Off
Versions: 1 2 3 4 5 6 7 8 9 10 11 12 13 14 15 16 17 18 19 20 21 22 23 24 25 26 27 28 29 30 31 32 33 34 35 36 37 38 39 40 41 42 43 44 45 46 47 48 49 50

000
ASUS42 KCHS 041927
RWRCHS

REGIONAL WEATHER ROUNDUP
NATIONAL WEATHER SERVICE CHARLESTON SC
300 PM EDT MON MAY 04 2015

NOTE: "FAIR" INDICATES FEW OR NO CLOUDS BELOW 12,000 FEET WITH NO
SIGNIFICANT WEATHER AND/OR OBSTRUCTIONS TO VISIBILITY.

NOT ALL STATIONS ARE QUALITY CONTROLLED BY THE NATIONAL
WEATHER SERVICE. USE DATA WITH CAUTION...ESPECIALLY
DEWPOINT OBSERVATIONS.

SCZ027-030-031-034>040-042>050-042000-
...SOUTHEAST SOUTH CAROLINA...

CITY           SKY/WX    TMP DP  RH WIND       PRES   REMARKS
N CHARLESTON   PTSUNNY   78  55  44 SE14G21   30.32F
WATERFRONT PRK   N/A     75 N/A N/A SE12        N/A
MOUNT PLEASANT FAIR      77  55  47 MISG      30.32F
PINOPOLIS      NOT AVBL
MONCKS CORNER  MOCLDY    77  57  50 S7        30.31S
SUMMERVILLE    MOCLDY    77  55  47 SE6       30.31F
BEAUFORT MCAS  PTSUNNY   76  56  49 E13       30.31F
BEAUFORT ARPT  FAIR      77  55  47 E10G16    30.31F
HILTON HEAD IS MOSUNNY   75  63  64 E7        30.33F
WALTERBORO     PTCLDY    77  55  47 S12       30.31F
ALLENDALE      CLOUDY    79  57  47 SE5       30.29S

...SOUTHERN MIDLANDS AND PEE DEE...

CITY           SKY/WX    TMP DP  RH WIND       PRES   REMARKS
GEORGETOWN     NOT AVBL
KINGSTREE      NOT AVBL
ORANGEBURG     MOSUNNY   80  53  39 VRB6      30.30F
BARNWELL       FAIR      82  52  34 CALM      30.29F
AIKEN          CLOUDY    77  45  31 S5        30.33S
MANNING        CLOUDY    77  48  36 CALM      30.30F
COLUMBIA       PTSUNNY   82  49  31 VRB5      30.28F
SUMTER         PTSUNNY   81  51  34 CALM      30.28F
FLORENCE       SUNNY     79  52  38 S6        30.30F
MYRTLE BEACH   MOSUNNY   79  55  44 S12       30.35F
N MYRTLE BEACH SUNNY     76  58  53 S9        30.33F

$$

GAZ063-065-086>088-099>101-113>116-118-119-134>141-150-042000-
...SOUTHEAST GEORGIA...

CITY           SKY/WX    TMP DP  RH WIND       PRES   REMARKS
SAVANNAH ARPT  PTSUNNY   78  52  40 SE18G24   30.30F
HUNTER AAF     SUNNY     79  58  48 SE13G18   30.28F
FORT STEWART   PTSUNNY   78  57  47 E13       30.27
STATESBORO       N/A     79  58  48 E6        30.28F
SYLVANIA       CLOUDY    77  60  55 CALM      30.30S
CLAXTON        MOCLDY    77  59  53 SE5       30.28F

...CSRA...CENTRAL AND FAR SOUTHEAST GEORGIA...

CITY           SKY/WX    TMP DP  RH WIND       PRES   REMARKS
THOMSON        MOSUNNY   81  55  40 CALM      30.33F
AUGUSTA-BUSH   MOSUNNY   80  52  37 CALM      30.28F
AUGUSTA-DANIEL MOSUNNY   80  50  34 NW3       30.30F
SWAINSBORO     NOT AVBL
VIDALIA        CLOUDY    81  57  44 E10       30.27F
EASTMAN        FAIR      82  54  38 SE5       30.29F
HAZLEHURST     FAIR      81  54  39 E7        30.25F
ALMA           CLOUDY    79  55  43 SE9G16    30.27F
WAYCROSS       CLOUDY    83  60  46 SE10G16   30.26F
JESUP          MOCLDY    82  59  44 SE8       30.27F
BAXLEY         CLOUDY    79  55  44 SE5       30.26F
BRUNSWICK      PTSUNNY   79  55  44 E12G22    30.29F
SAINT SIMONS   SUNNY     78  60  53 E15       30.30F

$$

SCZ027-028-034-036>038-045-046-048>050-GAZ119-141-042000-
...LAKE AND SUPPLEMENTAL COASTAL OBSERVATIONS...

STATION/POSITION TIME  TEMP    WIND        PRES    WAVE   SWELL
                       AIR SEA DIR/SP/G            HT/PER HT/PER/DIR
                 (UTC) (F)     (DEG/KT/KT) (MB)    (FT/S) (FT/S/D)
UPR LAKE MARION  NOT AVBL
WINYAH BAY       1845   74     130/  9     1026.0F
LAKE MURRAY      1800   79     180/  3/  4 1025.7F
ACE BASIN NERRS  1830   74                   N/A
FORT PULASKI     1900   72 70   70/ 11/ 12 1026.9F
SAPELO ISLAND    1900   77      70/ 11     1026.0S

$$

ANZ835-935-AMZ111-154-330-350-352-354-370-450-454-472-042000-
...C-MAN AND BUOY OBSERVATIONS...

STATION/POSITION TIME  TEMP    WIND        PRES    WAVE   SWELL
                       AIR SEA DIR/SP/G            HT/PER HT/PER/DIR
                 (UTC) (F)     (DEG/KT/KT) (MB)    (FT/S) (FT/S/D)
BUOY 41004       1850   73 74   70/ 12/ 14 1026.6F   3/10   2/10
BUOY 41008       1850   71 71   80/  8/ 10 1026.6F   2/11   2/ 90/11
FOLLY BEACH CMAN 1900   72     100/ 10/ 11 1027.0F
CAPERS NEARSHORE 1808   72     120/ 10/ 12 1027.4F
FRIPP NEARSHORE  1800   74     100/ 10/ 12 1026.2F


STATION/POSITION TIME  TEMP    WIND        PRES    WAVE   SWELL
                       AIR SEA DIR/SP/G            HT/PER HT/PER/DIR
                 (UTC) (F)     (DEG/KT/KT) (MB)    (FT/S) (FT/S/D)
5E ST. MARYS GA  1821      74                N/A     2/13   2/ 90/13
FRYING PAN BUOY  1850   74 72  130/  8/ 10 1028.4F   3/ 9   3/ 80/ 9
BUOY 41025       1850   72 79  220/  4/  6 1027.9S   4/10   3/ 60/10
CAPE LOOKOUT NC  1900   71     160/  7/  8 1027.3F
BUOY 41002       1850   69 70   80/ 14/ 16 1027.1F   5/10   3/ 30/10
BUOY 41010       1820   73 78   60/ 16/ 19 1024.0F
ST AUGUSTINE FL  1900   72 72   50/ 11/ 12 1025.2F


$$


USA.gov is the U.S. government's official web portal to all federal, state and local government web resources and services.